Вернуться в каталог

HIMAWARI 6

АктивенПогодаGEO
NORAD 28622·PAYLOAD·🇯🇵 Japan

Запущен Feb 26, 2005 с Tanegashima Space Center

Loading…

TLE

СвежийSource: Space-Track

Эпоха: Sep 14, 2026, 05:12 UTC

1 28622U 05006A   26257.21692404 -.00000217  00000-0  00000-0 0  9992
2 28622   9.5922  57.5317 0010718 279.4552  85.2560  0.98916075 44906

Отслеживайте HIMAWARI 6 в реальном времени с AllMySat

Download on the App Store